Regional Weather Roundup
Issued by NWS

Home | Current Version | Previous Version | Graphics & Text | Print | Product List | Glossary On
Versions: 1 2 3 4 5 6 7 8 9 10 11 12 13 14 15 16 17 18 19 20 21 22 23 24 25 26 27 28 29 30 31 32 33 34 35 36 37 38 39 40 41 42 43 44 45 46 47 48 49 50
000
ASUS45 KBOI 080110
RWRID

IDAHO REGIONAL WEATHER ROUNDUP
NATIONAL WEATHER SERVICE BOISE ID
600 PM MST SUN FEB 07 2016

NOTE: "FAIR" INDICATES FEW OR NO CLOUDS BELOW 12000 FEET
WITH NO SIGNIFICANT WEATHER AND/OR OBSTRUCTIONS TO VISIBILITY

IDZ012-014-080200-
SOUTHWEST IDAHO


CITY           SKY/WX    TMP DP  RH WIND       PRES   REMARKS
BOISE          PTCLDY    45  35  68 W7        30.62R
CALDWELL       PTCLDY    45  35  68 NW5       30.64R
MOUNTAIN HOME  PTCLDY    46  46 100 NW5       30.61R
$$

IDZ016-017-080200-
SOUTHCENTRAL IDAHO


CITY           SKY/WX    TMP DP  RH WIND       PRES   REMARKS
BURLEY         MOCLDY    33  28  81 N3        30.58R
JEROME         MOCLDY    31  26  82 E3        30.60R
TWIN FALLS     MOCLDY    35  31  85 E3        30.59R
$$

IDZ019>023-080200-
SOUTHEAST IDAHO


CITY           SKY/WX    TMP DP  RH WIND       PRES   REMARKS
IDAHO FALLS    CLOUDY    23  20  88 N6        30.62R WCI  16
POCATELLO      CLOUDY    27  22  81 NE7       30.61R WCI  19
REXBURG        CLOUDY    24  23  96 CALM      30.62R
$$

IDZ006-010-011-018-031-032-080200-
CENTRAL IDAHO MOUNTAINS


CITY           SKY/WX    TMP DP  RH WIND       PRES   REMARKS
MCCALL         PTCLDY    31  27  85 CALM      30.59R
HAILEY         PTCLDY    25  18  74 CALM      30.58R
STANLEY          N/A     29  17  61 SW3       30.59R
SALMON         CLOUDY    21  14  73 E3        30.63R
CHALLIS        PTCLDY    19  12  74 CALM      30.60R
$$

IDZ002-004-006-007-026-080200-
NORTHERN IDAHO


CITY           SKY/WX    TMP DP  RH WIND       PRES   REMARKS
LEWISTON       MOCLDY    46  32  58 CALM      30.61S
LOWELL           N/A     39  35  86 N3        30.65R
COEUR D`ALENE  CLOUDY    41  30  65 NE3       30.58F
MULLAN PASS    CLOUDY    27  19  72 VRB3      30.53S
$$




USA.gov is the U.S. government's official web portal to all federal, state and local government web resources and services.